Location: North Runcton
(52.7000°N, 0.4333°E)
Time: 17:12:28
(UTC+00:00)

COSMOS 2406 - Pass Details

Date: 19 May 2025
Orbit: 845 x 859 km, 71.0° (Epoch: 12 June)

Event Time Altitude Azimuth Distance (km) Brightness Sun altitude
Exits shadow 23:41:08 14° 226° (SW) 2,212 5.0 -17.3°
Maximum altitude 23:46:03 63° 306° (NW) 953 3.6 -17.3°
Drops below altitude 10° 23:51:45 10° 28° (NNE) 2,494 6.6 -17.3°
Sets 23:54:15 0° 31° (NNE) 3,436 7.4 -17.3°
